Weather History for Chippewa, MI

Change the Weather History Date:

Tuesday, January 29, 2013

  Actual Average Record
Temperature  
Mean Temperature 32 °F -  
Max Temperature 35 °F 24 °F 44 °F (1989)
Min Temperature 28 °F 4 °F -20 °F (1997)
Degree Days  
Heating Degree Days 34    
Moisture  
Dew Point 32 °F    
Average Humidity 98    
Maximum Humidity 100    
Minimum Humidity 93    
Precipitation  
Precipitation 0.09 in - - ()
Sea Level Pressure  
Sea Level Pressure 29.65 in    
Wind  
Wind Speed 11 mph (East)    
Max Wind Speed 18 mph    
Max Gust Speed 23 mph    
Visibility 4 miles    
Events      
Averages and records for this station are not official NWS values.
T = Trace of Precipitation, MM = Missing Value Source: NWS Daily Summary

Daily Weather History Graph

Daily Weather History Graph

Search for Another Location

Airport:

Trip Planner

Search our weather history database for the weather conditions in past years. The results will help you decide how hot, cold, wet, or windy it might be!

Date:

Astronomy

Jan. 29, 2013 Rise Set
Actual Time 8:04 AM EST 5:38 PM EST
Civil Twilight 7:31 AM EST 6:11 PM EST
Nautical Twilight 6:55 AM EST 6:47 PM EST
Astronomical Twilight 6:20 AM EST 7:22 PM EST
Moon 8:47 PM EST (1/29) 8:48 AM EST (1/29)
Length of Visible Light 10h 39m
Length of Day
9h 34m
Waning Gibbous, 94% of the Moon is Illuminated
Jan 29
Waning Gibbous
Feb 3
Last Quarter
Feb 10
New
Feb 17
First Quarter
Feb 25
Full

Hourly Weather History & Observations

Time (EST) Temp. Windchill Dew Point Humidity Pressure Visibility Wind Dir Wind Speed Gust Speed Precip Events Conditions
12:15 AM 30.2 °F 21.9 °F 28.4 °F 93% 29.96 in 10.0 mi SE 9.2 mph - N/A   Overcast
12:35 AM 30.2 °F 22.6 °F 28.4 °F 93% 29.96 in 10.0 mi ESE 8.1 mph - N/A   Overcast
12:55 AM 30.2 °F 22.6 °F 30.2 °F 100% 29.95 in 10.0 mi ESE 8.1 mph - N/A   Overcast
1:15 AM 30.2 °F 21.9 °F 30.2 °F 100% 29.94 in 10.0 mi ESE 9.2 mph - N/A   Overcast
1:35 AM 30.2 °F 20.2 °F 30.2 °F 100% 29.92 in 10.0 mi ESE 12.7 mph - N/A   Overcast
1:55 AM 30.2 °F 20.8 °F 30.2 °F 100% 29.91 in 10.0 mi ESE 11.5 mph - N/A   Overcast
2:15 AM 30.2 °F 20.8 °F 30.2 °F 100% 29.91 in 10.0 mi ESE 11.5 mph - N/A   Overcast
2:35 AM 30.2 °F 20.2 °F 28.4 °F 93% 29.90 in 10.0 mi ESE 12.7 mph - N/A   Overcast
3:15 AM 28.4 °F 18.0 °F 26.6 °F 93% 29.87 in 10.0 mi East 12.7 mph - N/A   Overcast
3:35 AM 28.4 °F 18.0 °F 28.4 °F 100% 29.86 in 10.0 mi East 12.7 mph 17.3 mph N/A   Overcast
3:55 AM 28.4 °F 18.5 °F 28.4 °F 100% 29.85 in 10.0 mi ESE 11.5 mph - N/A   Overcast
4:15 AM 28.4 °F 18.0 °F 28.4 °F 100% 29.83 in 5.0 mi ESE 12.7 mph 19.6 mph N/A   Overcast
4:35 AM 28.4 °F 18.0 °F 28.4 °F 100% 29.82 in 2.0 mi East 12.7 mph - N/A   Overcast
4:55 AM 28.4 °F 19.1 °F 28.4 °F 100% 29.82 in 2.0 mi ESE 10.4 mph - N/A   Overcast
5:15 AM 28.4 °F 18.5 °F 28.4 °F 100% 29.81 in 1.8 mi ESE 11.5 mph 17.3 mph N/A   Overcast
5:35 AM 28.4 °F 16.6 °F 26.6 °F 93% 29.80 in 1.5 mi ESE 16.1 mph 20.7 mph N/A   Overcast
5:55 AM 28.4 °F 18.0 °F 26.6 °F 93% 29.79 in 1.5 mi ESE 12.7 mph - N/A   Overcast
6:15 AM 28.4 °F 18.5 °F 28.4 °F 100% 29.79 in 3.0 mi East 11.5 mph - N/A   Overcast
6:35 AM 28.4 °F 19.7 °F 26.6 °F 93% 29.79 in 4.0 mi East 9.2 mph - N/A   Overcast
6:55 AM 28.4 °F 18.0 °F 28.4 °F 100% 29.76 in 5.0 mi East 12.7 mph - N/A   Overcast
7:15 AM 28.4 °F 17.5 °F 28.4 °F 100% 29.74 in 5.0 mi East 13.8 mph 19.6 mph N/A   Overcast
7:35 AM 28.4 °F 18.0 °F 28.4 °F 100% 29.73 in 5.0 mi East 12.7 mph - N/A   Overcast
7:55 AM 28.4 °F 17.5 °F 28.4 °F 100% 29.72 in 5.0 mi East 13.8 mph - N/A   Overcast
8:15 AM 28.4 °F 18.5 °F 26.6 °F 93% 29.73 in 5.0 mi East 11.5 mph - N/A   Overcast
8:35 AM 28.4 °F 17.5 °F 26.6 °F 93% 29.72 in 3.0 mi East 13.8 mph - N/A   Overcast
8:55 AM 28.4 °F 17.0 °F 28.4 °F 100% 29.71 in 5.0 mi East 15.0 mph 19.6 mph N/A   Overcast
9:15 AM 28.4 °F 17.5 °F 28.4 °F 100% 29.70 in 5.0 mi East 13.8 mph - N/A   Overcast
9:35 AM 28.4 °F 16.6 °F 28.4 °F 100% 29.68 in 5.0 mi East 16.1 mph 20.7 mph N/A   Overcast
9:55 AM 28.4 °F 16.6 °F 28.4 °F 100% 29.68 in 5.0 mi East 16.1 mph 20.7 mph N/A   Overcast
10:15 AM 30.2 °F 18.5 °F 30.2 °F 100% 29.67 in 3.0 mi ESE 17.3 mph 23.0 mph N/A   Overcast
10:35 AM 30.2 °F 19.3 °F 30.2 °F 100% 29.66 in 1.8 mi East 15.0 mph 21.9 mph N/A   Overcast
10:55 AM 30.2 °F 19.3 °F 30.2 °F 100% 29.64 in 4.0 mi East 15.0 mph - 0.01 in   Overcast
11:15 AM 33.8 °F 25.8 °F 32.0 °F 93% 29.64 in 4.0 mi SE 10.4 mph - N/A   Overcast
11:35 AM 33.8 °F 23.5 °F 33.8 °F 100% 29.62 in 3.0 mi ESE 16.1 mph 20.7 mph N/A   Overcast
11:55 AM 33.8 °F 23.9 °F 33.8 °F 100% 29.60 in 3.0 mi ESE 15.0 mph - N/A   Overcast
12:15 PM 33.8 °F 23.5 °F 32.0 °F 93% 29.60 in 5.0 mi SE 16.1 mph - N/A   Overcast
12:35 PM 33.8 °F 22.8 °F 33.8 °F 100% 29.59 in 3.0 mi ESE 18.4 mph 21.9 mph N/A   Overcast
12:55 PM 35.6 °F 25.5 °F 35.6 °F 100% 29.57 in 4.0 mi SE 17.3 mph - N/A   Overcast
1:15 PM 35.6 °F 25.2 °F 35.6 °F 100% 29.55 in 2.0 mi SE 18.4 mph - N/A   Overcast
1:35 PM 35.6 °F 25.9 °F 33.8 °F 93% 29.54 in 1.8 mi SE 16.1 mph - N/A   Overcast
1:55 PM 35.6 °F 26.6 °F 33.8 °F 93% 29.52 in 1.5 mi ESE 13.8 mph - N/A   Overcast
2:15 PM 35.6 °F 26.2 °F 33.8 °F 93% 29.52 in 1.0 mi SE 15.0 mph - N/A   Overcast
2:35 PM 35.6 °F 26.2 °F 33.8 °F 93% 29.53 in 0.8 mi SE 15.0 mph 21.9 mph N/A   Overcast
2:55 PM 35.6 °F 26.6 °F 33.8 °F 93% 29.53 in 0.5 mi SE 13.8 mph - N/A   Overcast
3:15 PM 35.6 °F 27.1 °F 35.6 °F 100% 29.51 in 0.5 mi ESE 12.7 mph - N/A   Overcast
3:35 PM 35.6 °F 27.5 °F 35.6 °F 100% 29.51 in 1.0 mi ESE 11.5 mph - N/A   Overcast
3:55 PM 35.6 °F 30.7 °F 35.6 °F 100% 29.52 in 0.5 mi ESE 5.8 mph - N/A   Overcast
4:15 PM 35.6 °F 31.7 °F 35.6 °F 100% 29.52 in 0.5 mi East 4.6 mph - 0.01 in   Overcast
4:35 PM 35.6 °F 32.8 °F 33.8 °F 93% 29.52 in 0.8 mi ENE 3.5 mph - 0.01 in   Overcast
4:55 PM 35.6 °F 30.7 °F 33.8 °F 93% 29.51 in 1.2 mi ESE 5.8 mph - 0.01 in   Overcast
5:15 PM 35.6 °F 29.2 °F 35.6 °F 100% 29.51 in 1.2 mi ESE 8.1 mph - N/A   Overcast
5:35 PM 35.6 °F 29.2 °F 35.6 °F 100% 29.51 in 1.5 mi East 8.1 mph - N/A   Overcast
5:55 PM 35.6 °F 31.7 °F 33.8 °F 93% 29.52 in 1.2 mi ESE 4.6 mph - N/A   Overcast
6:15 PM 35.6 °F 31.7 °F 35.6 °F 100% 29.50 in 1.0 mi ENE 4.6 mph - N/A   Overcast
6:35 PM 35.6 °F 31.7 °F 35.6 °F 100% 29.51 in 0.8 mi NNE 4.6 mph - N/A   Overcast
6:55 PM 35.6 °F - 35.6 °F 100% 29.52 in 0.8 mi Calm Calm - N/A   Overcast
7:15 PM 35.6 °F 32.8 °F 35.6 °F 100% 29.52 in 0.8 mi NE 3.5 mph - N/A   Overcast
7:35 PM 35.6 °F 32.8 °F 35.6 °F 100% 29.54 in 0.8 mi NNW 3.5 mph - N/A   Overcast
7:55 PM 33.8 °F - 33.8 °F 100% 29.53 in 0.5 mi Calm Calm - N/A   Overcast
8:15 PM 33.8 °F 30.8 °F 33.8 °F 100% 29.52 in 0.8 mi NNW 3.5 mph - N/A   Overcast
8:35 PM 33.8 °F 30.8 °F 33.8 °F 100% 29.52 in 1.0 mi NNW 3.5 mph - N/A   Overcast
8:55 PM 33.8 °F - 32.0 °F 93% 29.53 in 1.2 mi Calm Calm - N/A   Overcast
9:15 PM 33.8 °F - 33.8 °F 100% 29.51 in 1.0 mi Calm Calm - N/A   Overcast
9:35 PM 33.8 °F 28.6 °F 33.8 °F 100% 29.50 in 1.2 mi NNW 5.8 mph - 0.01 in   Overcast
9:55 PM 33.8 °F 29.6 °F 32.0 °F 93% 29.51 in 2.0 mi NNW 4.6 mph - 0.01 in   Overcast
10:15 PM 33.8 °F 29.6 °F 32.0 °F 93% 29.50 in 1.2 mi WNW 4.6 mph - 0.02 in   Overcast
10:35 PM 33.8 °F 30.8 °F 33.8 °F 100% 29.48 in 1.0 mi NW 3.5 mph - 0.03 in   Overcast
10:55 PM 33.8 °F 28.6 °F 32.0 °F 93% 29.47 in 0.8 mi NNW 5.8 mph - 0.04 in   Overcast
11:15 PM 33.8 °F 27.7 °F 33.8 °F 100% 29.46 in 0.5 mi NNW 6.9 mph - 0.01 in   Overcast
11:35 PM 33.8 °F 25.3 °F 33.8 °F 100% 29.47 in 0.8 mi NW 11.5 mph - 0.01 in   Overcast
11:55 PM 33.8 °F 24.8 °F 33.8 °F 100% 29.45 in 5.0 mi NW 12.7 mph - 0.02 in   Overcast